GW3032 Weather Reports


time (UTC)temp
F
wind
direction
speed
knots
gust
knots
rain 1hr
in
rain 24hr
in
rain mn
in
humidity
%
barometer
mb
20260510164353 58 351 0.0 2.6 0.00 0.00 0.00 46 1019.0
20260510163853 58 6 1.7 6.1 0.00 0.00 0.00 44 1018.9
20260510163349 57 22 6.1 7.8 0.00 0.00 0.00 43 1018.8
20260510162844 58 34 4.3 7.0 0.00 0.00 0.00 43 1018.9
20260510162341 59 348 7.8 8.7 0.00 0.00 0.00 42 1018.8
20260510161836 57 319 2.6 6.1 0.00 0.00 0.00 49 1018.7
20260510161332 57 7 1.7 1.7 0.00 0.00 0.00 46 1018.6
20260510160824 56 325 0.9 2.6 0.00 0.00 0.00 52 1018.6
20260510160320 56 11 3.5 6.1 0.00 0.00 0.00 44 1018.7
20260510155814 56 29 2.6 7.0 0.00 0.00 0.00 46 1018.6
20260510155311 56 322 3.5 7.0 0.00 0.00 0.00 46 1018.6
20260510154807 56 343 3.5 7.0 0.00 0.00 0.00 49 1018.5
20260510154303 56 46 6.1 7.8 0.00 0.00 0.00 47 1018.4
20260510153758 55 321 1.7 4.3 0.00 0.00 0.00 56 1018.1
20260510153254 55 316 2.6 5.2 0.00 0.00 0.00 55 1018.3
20260510152751 56 282 1.7 2.6 0.00 0.00 0.00 55 1018.2
20260510152247 56 277 1.7 1.7 0.00 0.00 0.00 59 1018.0
20260510151744 55 30 1.7 4.3 0.00 0.00 0.00 54 1018.2
20260510151243 55 348 6.1 7.0 0.00 0.00 0.00 56 1018.1
20260510150737 55 359 2.6 4.3 0.00 0.00 0.00 57 1018.1
20260510150234 54 334 1.7 4.3 0.00 0.00 0.00 57 1018.1
20260510145724 54 350 2.6 2.6 0.00 0.00 0.00 56 1017.8
20260510145220 54 328 0.9 1.7 0.00 0.00 0.00 60 1017.7
20260510144717 53 349 0.9 6.1 0.00 0.00 0.00 56 1018.1
20260510144214 53 345 0.9 2.6 0.00 0.00 0.00 58 1018.0
20260510143708 53 333 0.9 2.6 0.00 0.00 0.00 56 1017.9
20260510143205 52 348 0.9 1.7 0.00 0.00 0.00 58 1018.0
20260510142701 52 1 1.7 6.1 0.00 0.00 0.00 55 1017.7
20260510142158 52 14 2.6 8.7 0.00 0.00 0.00 55 1017.7
20260510141655 51 355 0.9 4.3 0.00 0.00 0.00 58 1017.9
20260510141154 51 13 0.9 1.7 0.00 0.00 0.00 58 1017.8
20260510140650 51 347 2.6 6.1 0.00 0.00 0.00 58 1017.9
20260510140149 51 357 0.9 6.1 0.00 0.00 0.00 58 1017.9
20260510135644 51 3 2.6 4.3 0.00 0.00 0.00 60 1017.9
20260510135141 51 331 4.3 7.8 0.00 0.00 0.00 61 1017.8
20260510134638 52 313 1.7 6.1 0.00 0.00 0.00 65 1017.7
20260510134135 51 303 3.5 5.2 0.00 0.00 0.00 65 1017.8
20260510133631 51 351 0.0 2.6 0.00 0.00 0.00 67 1017.7
20260510133126 51 334 2.6 4.3 0.00 0.00 0.00 66 1017.6
20260510132624 51 333 1.7 4.3 0.00 0.00 0.00 70 1017.7
20260510132121 51 313 0.9 1.7 0.00 0.00 0.00 70 1017.6
20260510131618 50 294 0.0 0.9 0.00 0.00 0.00 73 1017.6
20260510131115 50 326 0.9 1.7 0.00 0.00 0.00 72 1017.3
20260510130611 49 330 0.9 1.7 0.00 0.00 0.00 74 1017.2
20260510130109 49 280 0.9 1.7 0.00 0.00 0.00 75 1017.3
20260510125605 49 313 2.6 4.3 0.00 0.00 0.00 74 1017.1
20260510125101 49 12 1.7 7.0 0.00 0.00 0.00 75 1016.9
20260510124558 49 20 1.7 6.1 0.00 0.00 0.00 74 1017.0
20260510124055 49 349 2.6 6.1 0.00 0.00 0.00 77 1016.9
20260510123550 48 14 0.0 0.9 0.00 0.00 0.00 81 1016.7
20260510123047 48 331 0.0 1.7 0.00 0.00 0.00 78 1016.9
20260510122543 48 346 0.9 2.6 0.00 0.00 0.00 81 1016.6
20260510122039 48 348 1.7 6.1 0.00 0.00 0.00 82 1016.5
20260510121536 48 326 1.7 4.3 0.00 0.00 0.00 83 1016.3
20260510121033 48 351 1.7 1.7 0.00 0.00 0.00 84 1016.4
20260510120531 48 2 3.5 4.3 0.00 0.00 0.00 84 1016.3
20260510120026 48 348 1.7 4.3 0.00 0.00 0.00 85 1016.4
20260510115523 48 16 2.6 4.3 0.00 0.00 0.00 84 1016.1
20260510115020 48 329 0.9 2.6 0.00 0.00 0.00 85 1016.0
20260510114516 48 355 0.9 1.7 0.00 0.00 0.00 85 1016.1
20260510114012 48 334 2.6 4.3 0.00 0.00 0.00 85 1015.9
20260510113507 48 297 3.5 5.2 0.00 0.00 0.00 86 1015.7
20260510113005 48 337 1.7 1.7 0.00 0.00 0.00 87 1015.4
20260510112502 48 1 2.6 2.6 0.00 0.00 0.00 88 1015.4
20260510111958 48 343 2.6 2.6 0.00 0.00 0.00 88 1015.2
20260510111454 48 352 1.7 1.7 0.00 0.00 0.00 89 1015.2
20260510110950 48 342 0.0 1.7 0.00 0.00 0.00 89 1015.1
20260510110442 48 336 1.7 2.6 0.00 0.00 0.00 90 1015.1
20260510105938 48 9 2.6 4.3 0.00 0.00 0.00 89 1015.0
20260510105433 48 326 2.6 2.6 0.00 0.00 0.00 89 1014.9
20260510104929 48 332 1.7 4.3 0.00 0.00 0.00 89 1014.6
20260510104425 48 10 1.7 2.6 0.00 0.00 0.00 89 1014.6
20260510103921 48 357 1.7 1.7 0.00 0.00 0.00 90 1014.5
20260510103414 48 358 0.9 1.7 0.00 0.00 0.00 90 1014.4
20260510102908 48 341 2.6 2.6 0.00 0.00 0.00 91 1014.3
20260510102404 48 348 1.7 1.7 0.00 0.00 0.00 91 1013.8
20260510101901 47 2 1.7 2.6 0.00 0.00 0.00 91 1013.8
20260510101359 48 358 0.9 1.7 0.00 0.00 0.00 90 1013.7
20260510100856 48 354 0.9 2.6 0.00 0.00 0.00 91 1013.8
20260510100353 47 355 2.6 2.6 0.00 0.00 0.00 91 1013.7
20260510095850 47 355 0.9 1.7 0.00 0.00 0.00 93 1013.7
20260510095344 47 337 0.9 1.7 0.00 0.00 0.00 95 1013.4
20260510094839 46 326 0.9 1.7 0.00 0.00 0.00 97 1013.5
20260510094334 46 323 0.9 0.9 0.00 0.00 0.00 99 1013.5
20260510093831 46 307 0.0 0.0 0.00 0.00 0.00 99 1013.5
20260510093326 46 307 0.0 0.0 0.00 0.00 0.00 99 1013.6
20260510092823 45 307 0.0 0.0 0.00 0.00 0.00 99 1013.6
20260510092319 45 307 0.0 0.0 0.00 0.00 0.00 99 1013.4
20260510091815 45 307 0.0 0.0 0.00 0.00 0.00 99 1013.3
20260510091312 45 307 0.0 0.0 0.00 0.00 0.00 99 1013.2
20260510090809 45 307 0.0 0.0 0.00 0.00 0.00 99 1013.1
20260510090306 45 307 0.0 0.0 0.00 0.00 0.00 99 1013.0
20260510085801 45 307 0.0 0.0 0.00 0.00 0.00 99 1012.9
20260510085300 45 307 0.0 0.0 0.00 0.00 0.00 99 1013.0
20260510084756 45 307 0.0 0.0 0.00 0.00 0.00 99 1012.8
20260510084254 45 308 0.9 0.9 0.00 0.00 0.00 99 1012.7
20260510083750 45 307 0.0 0.9 0.00 0.00 0.00 99 1012.7
20260510083247 46 304 0.9 0.9 0.00 0.00 0.00 99 1012.6
20260510082743 46 303 0.0 0.9 0.00 0.00 0.00 99 1012.6
20260510082240 46 304 0.9 0.9 0.00 0.00 0.00 99 1012.5
20260510081739 46 303 0.0 0.0 0.00 0.00 0.00 99 1012.4
20260510081235 46 303 0.0 0.0 0.00 0.00 0.00 99 1012.4
20260510080730 46 303 0.0 0.0 0.00 0.00 0.00 99 1012.5
20260510080226 46 303 0.0 0.0 0.00 0.00 0.00 99 1012.4
20260510075723 46 303 0.0 0.0 0.00 0.00 0.00 98 1012.1
20260510075221 46 303 0.9 0.9 0.00 0.00 0.00 98 1012.1
20260510074718 47 303 0.0 0.9 0.00 0.00 0.00 97 1012.1
20260510074214 47 303 0.0 0.0 0.00 0.00 0.00 97 1012.0
20260510073711 47 303 0.0 0.0 0.00 0.00 0.00 96 1011.7
20260510073206 47 303 0.0 0.0 0.00 0.00 0.00 96 1011.6
20260510072702 47 303 0.0 0.0 0.00 0.00 0.00 94 1011.5
20260510072159 47 303 0.0 0.0 0.00 0.00 0.00 91 1011.5
20260510071656 47 303 0.0 0.0 0.00 0.00 0.00 92 1011.5
20260510071153 48 304 0.0 0.9 0.00 0.00 0.00 91 1011.4
20260510070650 48 304 0.0 0.9 0.00 0.00 0.00 90 1011.6
20260510070148 48 316 0.0 1.7 0.00 0.00 0.00 89 1011.4
20260510065643 48 329 0.9 1.7 0.00 0.00 0.00 90 1011.4
20260510065139 49 329 1.7 2.6 0.00 0.00 0.00 89 1011.2
20260510064636 49 312 2.6 2.6 0.00 0.00 0.00 91 1011.4
20260510064133 49 330 2.6 5.2 0.00 0.00 0.00 89 1011.2
20260510063630 49 20 1.7 4.3 0.00 0.00 0.00 92 1011.1
20260510063127 49 346 3.5 7.0 0.00 0.00 0.00 94 1010.9
20260510062623 49 335 0.9 2.6 0.00 0.00 0.00 97 1010.7
20260510062119 50 346 5.2 7.0 0.00 0.00 0.00 99 1010.9
20260510061615 50 346 1.7 6.1 0.00 0.00 0.00 99 1010.8
20260510061112 51 359 2.6 6.1 0.00 0.00 0.00 99 1010.6
20260510060608 53 12 1.7 7.0 0.00 0.00 0.00 99 1010.6
20260510060104 53 356 2.6 4.3 0.00 0.00 0.00 99 1010.5
20260510055559 53 297 2.6 5.2 0.00 0.00 0.00 99 1010.4
20260510055058 53 321 0.0 0.9 0.00 0.00 0.00 99 1010.3
20260510054549 53 290 0.0 0.9 0.00 0.00 0.00 99 1010.0
20260510054043 53 285 0.0 0.0 0.00 0.00 0.00 99 1009.9
20260510053538 54 275 0.0 0.0 0.00 0.00 0.00 99 1009.9
20260510053035 54 275 0.0 0.9 0.00 0.00 0.00 99 1009.8
20260510052531 54 271 0.0 0.9 0.00 0.00 0.00 99 1009.8
20260510052028 54 358 0.9 1.7 0.00 0.00 0.00 99 1009.6
20260510051523 54 310 0.0 0.9 0.00 0.00 0.00 99 1009.6
20260510051020 54 283 0.9 2.6 0.00 0.00 0.00 99 1009.4
20260510050518 54 237 0.9 4.3 0.00 0.00 0.00 99 1009.5
20260510050014 53 354 4.3 5.2 0.00 0.00 0.00 99 1009.4
20260510045512 53 347 2.6 2.6 0.00 0.00 0.00 99 1009.2
20260510045007 53 288 0.0 0.9 0.00 0.00 0.00 99 1008.8
20260510044504 53 272 0.0 0.9 0.00 0.00 0.00 99 1008.8
20260510044002 53 273 0.0 0.9 0.00 0.00 0.00 99 1008.8
20260510043457 53 279 0.0 0.9 0.00 0.00 0.00 99 1008.7
20260510042956 53 227 0.9 0.9 0.00 0.00 0.00 99 1008.5
20260510042452 53 302 0.0 0.9 0.00 0.00 0.00 99 1008.5
20260510041947 53 271 0.0 0.0 0.00 0.00 0.00 99 1008.5
20260510041444 53 261 0.0 0.9 0.00 0.00 0.00 99 1008.5
20260510040942 53 279 0.0 0.0 0.00 0.00 0.00 99 1008.5
20260510040439 53 257 0.9 0.9 0.00 0.00 0.00 99 1008.5
20260510035934 53 266 0.0 0.0 0.00 0.67 0.67 99 1008.4
20260510035430 53 266 0.0 0.0 0.00 0.67 0.67 99 1008.5
20260510034925 54 265 0.0 0.9 0.00 0.67 0.67 99 1008.4
20260510034424 53 270 0.0 0.9 0.00 0.67 0.67 99 1008.3
20260510033920 54 271 0.0 0.0 0.00 0.67 0.67 99 1008.4
20260510033416 54 271 0.0 0.0 0.00 0.67 0.67 99 1008.3
20260510032913 54 270 0.0 0.0 0.00 0.67 0.67 99 1008.4
20260510032410 54 270 0.0 0.0 0.00 0.67 0.67 99 1008.6
20260510031905 54 271 0.0 0.9 0.00 0.67 0.67 99 1008.3
20260510031400 55 271 0.0 0.0 0.00 0.67 0.67 99 1008.4
20260510030855 55 270 0.0 0.9 0.00 0.67 0.67 99 1008.4
20260510030351 55 302 0.9 2.6 0.54 0.67 0.67 98 1008.0
20260510025849 55 221 0.9 5.2 0.83 0.67 0.67 99 1008.0
20260510025347 55 304 0.9 0.9 0.24 0.56 0.56 99 1008.5
20260510024843 55 347 1.7 2.6 0.07 0.53 0.53 99 1008.5
20260510024340 55 333 0.9 2.6 0.00 0.52 0.52 99 1008.3
20260510023836 55 231 0.9 1.7 0.00 0.52 0.52 99 1008.1
20260510023333 55 271 0.9 0.9 0.00 0.52 0.52 99 1008.3
20260510022830 55 292 0.9 2.6 0.00 0.52 0.52 99 1008.6
20260510022329 55 285 0.0 0.0 0.00 0.52 0.52 99 1008.5
20260510021828 55 286 0.0 0.9 0.00 0.52 0.52 99 1008.4
20260510021327 55 277 0.9 0.9 0.00 0.52 0.52 99 1008.6
20260510020822 55 264 0.0 0.9 0.00 0.52 0.52 99 1008.0
20260510020317 55 281 0.0 0.0 0.00 0.52 0.52 99 1008.0
20260510015813 55 196 0.9 1.7 0.00 0.52 0.52 99 1008.5
20260510015310 55 326 0.9 1.7 0.00 0.52 0.52 99 1008.8
20260510014805 55 290 1.7 1.7 0.00 0.52 0.52 99 1008.1
20260510014302 55 263 0.0 0.0 0.00 0.52 0.52 99 1007.6
20260510013758 55 263 0.0 0.9 0.00 0.52 0.52 99 1007.6
20260510013254 54 273 0.0 0.9 0.00 0.52 0.52 99 1007.4
20260510012749 54 273 0.0 0.9 0.00 0.52 0.52 99 1007.5
20260510012244 55 273 0.0 0.9 0.00 0.52 0.52 99 1007.2
20260510011744 55 273 0.0 0.9 0.00 0.52 0.52 99 1007.2
20260510011239 55 273 0.0 0.0 0.00 0.52 0.52 99 1007.5
20260510010737 55 274 0.0 0.0 0.00 0.52 0.52 99 1007.3
20260510010233 55 274 0.0 0.0 0.00 0.52 0.52 99 1007.2
20260510005730 55 274 0.0 0.9 0.00 0.52 0.52 99 1007.1
20260510005226 55 274 0.0 0.0 0.00 0.52 0.52 99 1007.2
20260510004724 55 265 0.0 0.9 0.00 0.52 0.52 99 1007.2
20260510004222 55 275 0.0 0.0 0.00 0.52 0.52 99 1007.0
20260510003720 55 271 0.0 1.7 0.00 0.52 0.52 99 1006.9
20260510003215 55 268 0.0 0.0 0.00 0.52 0.52 99 1006.9
20260510002714 55 320 1.7 1.7 0.00 0.52 0.52 99 1006.9
20260510002212 55 239 2.6 4.3 0.00 0.52 0.52 99 1007.2
20260510001709 55 267 0.0 0.9 0.00 0.52 0.52 99 1007.1
20260510001207 56 193 0.9 1.7 0.00 0.52 0.52 99 1007.1
20260510000702 56 260 0.0 5.2 0.00 0.52 0.52 99 1007.1
20260510000200 55 284 2.6 4.3 0.00 0.52 0.52 99 1007.0
20260509235656 55 281 0.0 2.6 0.00 0.52 0.52 99 1006.9
20260509235153 55 285 3.5 4.3 0.00 0.52 0.52 99 1007.1
20260509234649 55 277 0.9 5.2 0.00 0.52 0.52 99 1007.2
20260509234146 55 266 2.6 2.6 0.05 0.52 0.52 99 1007.1
20260509233644 55 28 0.9 2.6 0.12 0.52 0.52 99 1007.2
20260509233141 55 289 0.9 8.7 0.12 0.51 0.51 99 1007.3
20260509232637 55 272 0.9 6.1 0.12 0.50 0.50 99 1007.2
20260509232134 55 247 1.7 1.7 0.12 0.49 0.49 99 1006.9
20260509231631 55 6 0.9 2.6 0.12 0.48 0.48 99 1007.1
20260509231128 55 48 0.9 5.2 0.26 0.47 0.47 99 1007.3
20260509230625 55 120 2.6 4.3 0.90 0.45 0.45 99 1007.2
20260509230122 56 236 2.6 7.8 1.84 0.43 0.43 98 1007.3
20260509225618 58 56 7.8 15.6 0.94 0.26 0.26 93 1007.0
20260509225114 62 341 3.5 7.8 0.07 0.10 0.10 82 1006.9
20260509224609 64 355 4.3 6.1 0.07 0.10 0.10 71 1006.0
20260509224107 64 287 4.3 5.2 0.00 0.09 0.09 72 1005.6
20260509223603 67 181 2.6 9.6 0.00 0.09 0.09 69 1005.3
20260509223101 69 213 3.5 7.0 0.00 0.09 0.09 62 1004.9
20260509222557 69 207 3.5 5.2 0.00 0.09 0.09 59 1004.8
20260509222053 70 212 1.7 2.6 0.00 0.09 0.09 59 1004.5
20260509221549 70 216 4.3 6.1 0.00 0.09 0.09 57 1004.6
20260509221045 70 230 6.1 8.7 0.00 0.09 0.09 56 1004.6
20260509220541 70 99 1.7 5.2 0.00 0.09 0.09 56 1004.8
20260509220037 70 257 0.9 6.1 0.00 0.09 0.09 56 1004.6
20260509215532 71 237 1.7 2.6 0.00 0.09 0.09 54 1004.5
20260509215030 71 241 2.6 6.1 0.00 0.09 0.09 54 1004.5
20260509214527 72 194 2.6 5.2 0.00 0.09 0.09 54 1004.7
20260509214024 73 26 2.6 5.2 0.00 0.09 0.09 53 1004.6
20260509213520 72 238 4.3 8.7 0.00 0.09 0.09 54 1004.7
20260509213017 72 180 5.2 8.7 0.00 0.09 0.09 53 1004.7
20260509212514 72 207 3.5 6.1 0.00 0.09 0.09 53 1004.6
20260509212011 74 230 3.5 7.8 0.00 0.09 0.09 55 1004.7
20260509211506 73 241 0.9 6.1 0.00 0.09 0.09 56 1004.4
20260509211003 73 183 1.7 7.8 0.00 0.09 0.09 58 1004.6
20260509210500 73 312 1.7 7.0 0.00 0.09 0.09 56 1004.7
20260509205956 72 197 1.7 6.1 0.00 0.09 0.09 57 1004.7
20260509205451 73 216 2.6 4.3 0.00 0.09 0.09 57 1004.9
20260509204946 73 216 2.6 4.3 0.00 0.09 0.09 57 1005.2
20260509204443 73 154 4.3 7.0 0.00 0.09 0.09 56 1005.3
20260509203940 72 231 2.6 5.2 0.00 0.09 0.09 57 1005.4
20260509203435 72 282 3.5 6.1 0.00 0.09 0.09 57 1005.3
20260509202934 73 213 1.7 5.2 0.00 0.09 0.09 58 1005.3
20260509202429 72 223 1.7 5.2 0.00 0.09 0.09 58 1005.3
20260509201924 72 209 3.5 7.8 0.00 0.09 0.09 58 1005.4
20260509201420 72 244 2.6 5.2 0.00 0.09 0.09 56 1005.5
20260509200917 72 230 4.3 6.1 0.00 0.09 0.09 57 1005.5
20260509200417 71 237 2.6 5.2 0.00 0.09 0.09 60 1005.7
20260509195913 72 142 1.7 5.2 0.00 0.09 0.09 60 1005.8
20260509195408 72 245 3.5 5.2 0.00 0.09 0.09 58 1005.9
20260509194903 71 298 3.5 7.0 0.00 0.09 0.09 61 1006.3
20260509194359 71 279 5.2 7.8 0.00 0.09 0.09 58 1006.0
20260509193855 72 175 6.1 7.8 0.00 0.09 0.09 57 1006.1
20260509193350 73 235 0.9 4.3 0.00 0.09 0.09 61 1006.1
20260509192846 72 246 0.9 2.6 0.00 0.09 0.09 60 1006.2
20260509192342 71 237 0.9 2.6 0.00 0.09 0.09 61 1006.3
20260509191838 71 204 1.7 5.2 0.00 0.09 0.09 63 1006.2
20260509191333 71 169 3.5 6.1 0.00 0.09 0.09 63 1006.6
20260509190830 70 290 4.3 6.1 0.00 0.09 0.09 61 1006.6
20260509190327 70 139 0.9 5.2 0.00 0.09 0.09 63 1006.6
20260509185824 70 239 2.6 5.2 0.00 0.09 0.09 63 1006.6
20260509185321 70 213 3.5 6.1 0.00 0.09 0.09 62 1006.7
20260509184818 70 195 2.6 6.1 0.00 0.09 0.09 65 1007.0
20260509184310 69 232 3.5 7.0 0.00 0.09 0.09 63 1007.0
20260509183806 70 225 2.6 6.1 0.00 0.09 0.09 64 1007.1
20260509183301 69 333 4.3 5.2 0.00 0.09 0.09 64 1006.9
20260509182757 69 293 2.6 4.3 0.00 0.09 0.09 67 1006.9
20260509182254 68 268 1.7 2.6 0.00 0.09 0.09 67 1007.1
20260509181751 67 188 3.5 4.3 0.00 0.09 0.09 65 1007.0
20260509181249 68 201 1.7 7.8 0.00 0.09 0.09 67 1007.1
20260509180746 68 237 0.9 2.6 0.00 0.09 0.09 69 1006.8
20260509180242 68 200 0.9 7.8 0.00 0.09 0.09 65 1006.9
20260509175738 67 243 4.3 9.6 0.00 0.09 0.09 68 1006.9
20260509175235 67 281 0.9 5.2 0.00 0.09 0.09 70 1006.7
20260509174732 68 165 1.7 7.8 0.00 0.09 0.09 68 1006.8
20260509174227 68 33 2.6 7.0 0.00 0.09 0.09 67 1006.8
20260509173723 67 260 0.0 5.2 0.00 0.09 0.09 69 1007.1
20260509173219 67 245 0.9 2.6 0.00 0.09 0.09 71 1006.9
20260509172716 67 227 0.9 4.3 0.00 0.09 0.09 68 1007.0
20260509172212 68 219 2.6 6.1 0.00 0.09 0.09 68 1007.2
20260509171707 66 270 0.9 7.0 0.00 0.09 0.09 68 1007.1
20260509171204 66 227 2.6 6.1 0.00 0.09 0.09 69 1007.3
20260509170701 66 277 2.6 4.3 0.00 0.09 0.09 70 1007.3
20260509170156 66 280 0.9 5.2 0.00 0.09 0.09 73 1007.2
20260509165655 66 228 1.7 6.1 0.00 0.09 0.09 71 1007.3
20260509165150 65 173 1.7 5.2 0.00 0.09 0.09 74 1007.4
20260509164647 65 305 0.9 4.3 0.00 0.09 0.09 71 1007.2